Regional Weather Roundup
Issued by NWS

Home | Current Version | Previous Version | Graphics & Text | Print | Product List | Glossary On
Versions: 1 2 3 4 5 6 7 8 9 10 11 12 13 14 15 16 17 18 19 20 21 22 23 24 25 26 27 28 29 30 31 32 33 34 35 36 37 38 39 40 41 42 43 44 45 46 47 48 49 50
000
ASUS43 KIND 190100
RWRIN

WEATHER ROUNDUP FOR INDIANA
NATIONAL WEATHER SERVICE INDIANAPOLIS IN
900 PM EDT WED OCT 18 2017

NOTE: "FAIR" INDICATES FEW OR NO CLOUDS BELOW 12,000 FEET WITH NO
SIGNIFICANT WEATHER AND/OR OBSTRUCTIONS TO VISIBILITY.

* - STATION DOES NOT REPORT WEATHER SUCH AS PRECIPITATION OR FOG.

+ - STATION NOT QUALITY CONTROLLED BY THE NATIONAL WEATHER SERVICE.
    USE DATA WITH CAUTION...ESPECIALLY DEWPOINT AND RELATIVE
    HUMIDITY OBSERVATIONS.

INZ001>003-010>013-019-020-190200-
NORTHWEST INDIANA

CITY           SKY/WX    TMP DP  RH WIND       PRES   REMARKS
GARY /AIRPORT/ CLEAR     64  37  36 S8        30.07R
KNOX *+        CLEAR     57  41  54 S9        30.09S
MICHIGAN CITY+ CLEAR     61  41  48 S8        30.08R
MONTICELLO +   CLEAR     59  42  54 S6        30.11F
RENSSELAER +   CLEAR     59  36  41 S8        30.10S

$$

LMZ046-743>745-190200-
SOUTHERN LAKE MICHIGAN

STATION/POSITION TIME  TEMP    WIND        PRES    WAVE
                       AIR SEA DIR/SP/G            HT
                 (UTC) (F)     (DEG/KT/KT) (MB)    (FT)
BURNS HARBOR     0040   63     190/ 11/ 15 1018.6R
MICHIGAN CITY    0010   63     170/ 11/ 13   N/A
5NW MICH CITY    0050   62 58  200/ 12/ 16   N/A     2

$$

INZ004-005-014>016-021>024-190200-
NORTH CENTRAL INDIANA

CITY           SKY/WX    TMP DP  RH WIND       PRES   REMARKS
ELKHART        CLEAR     59  39  47 S6        30.09S
GOSHEN         CLEAR     59  40  49 S9        30.10S
PERU/GRISSOM   CLEAR     52  44  73 S9        30.13S
SOUTH BEND     CLEAR     57  42  57 S9        30.10R
WARSAW +       CLEAR     59  43  55 CALM      30.11F

$$

INZ006>009-017-018-025>027-190200-
NORTHEAST INDIANA

CITY           SKY/WX    TMP DP  RH WIND       PRES   REMARKS
AUBURN +       CLEAR     57  37  47 S5        30.13S
FORT WAYNE     CLEAR     53  40  61 S9        30.14S
KENDALLVILLE + CLEAR     57  41  55 S7        30.12S

$$

INZ028-029-035-036-043>045-051>053-190200-
WEST CENTRAL INDIANA

CITY           SKY/WX    TMP DP  RH WIND       PRES   REMARKS
GREENCASTLE +  CLEAR     52  43  71 S6        30.17R
LAFAYETTE      CLEAR     58  45  62 S5        30.12S
TERRE HAUTE    CLEAR     56  44  64 S7        30.16R

$$

INZ030>032-037>040-046>048-054>057-064-065-190200-
CENTRAL INDIANA

CITY           SKY/WX    TMP DP  RH WIND       PRES   REMARKS
COLUMBUS       CLEAR     55  41  58 S5        30.19R
GREENWOOD *+   CLEAR     60  47  62 S6        30.18R
INDIANAPOLIS   CLEAR     59  44  57 S10       30.17R
-EAGLE CREEK   CLEAR     60  44  55 S5        30.16R
KOKOMO +       CLEAR     56  44  64 S8        30.15R
MT COMFORT *+  CLEAR     55  46  71 S6        30.17S
SHELBYVILLE    CLEAR     57  43  59 S7        30.17S

$$

INZ033-034-041-042-049-050-058-059-190200-
EAST CENTRAL INDIANA

CITY           SKY/WX    TMP DP  RH WIND       PRES   REMARKS
MUNCIE         CLEAR     60  43  53 S7        30.16R
RICHMOND +     CLEAR     50  41  71 S7        30.20S

$$

INZ060-061-067>069-081>083-085>088-190200-
SOUTHWEST INDIANA

CITY           SKY/WX    TMP DP  RH WIND       PRES   REMARKS
EVANSVILLE     CLEAR     60  46  59 S5        30.19R
HUNTINGBURG +  CLEAR     60  47  61 S5        30.19S

$$

INZ062-063-066-070>080-084-089>092-190200-
SOUTH CENTRAL AND SOUTHEAST INDIANA

CITY           SKY/WX    TMP DP  RH WIND       PRES   REMARKS
BLOOMINGTON    CLEAR     58  44  60 S6        30.18R
MADISON *+     CLEAR     52  45  76 CALM      30.23S
SEYMOUR +      CLEAR     57  45  62 S3        30.19S

$$





USA.gov is the U.S. government's official web portal to all federal, state and local government web resources and services.